Regional Weather Roundup
Issued by NWS

Home | Current Version | Previous Version | Graphics & Text | Print | Product List | Glossary On
Versions: 1 2 3 4 5 6 7 8 9 10 11 12 13 14 15 16 17 18 19 20 21 22 23 24 25 26 27 28
000
ASUS45 KBOI 291010
RWRID

IDAHO REGIONAL WEATHER ROUNDUP
NATIONAL WEATHER SERVICE BOISE ID
400 AM MDT FRI JUL 29 2016

NOTE: "FAIR" INDICATES FEW OR NO CLOUDS BELOW 12000 FEET
WITH NO SIGNIFICANT WEATHER AND/OR OBSTRUCTIONS TO VISIBILITY

IDZ012-014-291100-
SOUTHWEST IDAHO


CITY           SKY/WX    TMP DP  RH WIND       PRES   REMARKS
BOISE          CLEAR     70  48  45 S3        29.96R
CALDWELL       CLEAR     70  51  51 SW6       29.95R
MOUNTAIN HOME  CLEAR     70  39  32 NW9       29.96S
$$

IDZ016-017-291100-
SOUTHCENTRAL IDAHO


CITY           SKY/WX    TMP DP  RH WIND       PRES   REMARKS
BURLEY         CLOUDY    63  43  48 CALM      30.04R
JEROME         CLEAR     70  40  33 S6        30.04R
TWIN FALLS     MOCLDY    73  34  23 S14       30.04S
$$

IDZ019>023-291100-
SOUTHEAST IDAHO


CITY           SKY/WX    TMP DP  RH WIND       PRES   REMARKS
IDAHO FALLS    CLEAR     53  45  74 NW3       30.08R
POCATELLO      CLEAR     60  36  40 SW8       30.05S
REXBURG        CLOUDY    57  46  66 NE7       30.09S
$$

IDZ006-010-011-018-031-032-291100-
CENTRAL IDAHO MOUNTAINS


CITY           SKY/WX    TMP DP  RH WIND       PRES   REMARKS
MCCALL         CLEAR     56  44  64 CALM      30.15S
HAILEY         CLEAR     61  37  41 NW12      30.14S
STANLEY          N/A     45  33  63 CALM      30.27S
SALMON         CLEAR     57  45  62 CALM      30.08R
CHALLIS        CLEAR     64  37  36 SE5       30.14S
$$

IDZ002-004-006-007-026-291100-
NORTHERN IDAHO


CITY           SKY/WX    TMP DP  RH WIND       PRES   REMARKS
LEWISTON       CLEAR     73  46  38 SE3       29.94R
LOWELL           N/A     63  57  81 NW3       30.01S
COEUR D`ALENE  CLEAR     63  52  67 CALM      29.98S
MULLAN PASS    CLEAR     64  40  41 N5        30.23S
$$




USA.gov is the U.S. government's official web portal to all federal, state and local government web resources and services.